Time,TemperatureF,DewpointF,PressureIn,WindDirection,WindDirectionDegrees,WindSpeedMPH,WindSpeedGustMPH,Humidity,HourlyPrecipIn,Conditions,Clouds,dailyrainin,SoftwareType,DateUTC
2013-07-24 00:04:00,80.8,55.6,29.62,SE,145,2.2,2.2,42,0.00,,---,0.00,VWS V14.01,2013-07-24 05:04:00,
2013-07-24 00:09:00,79.9,56.7,29.62,SSE,155,2.2,2.2,45,0.00,,---,0.00,VWS V14.01,2013-07-24 05:09:00,
2013-07-24 00:14:00,79.9,56.7,29.62,SSE,153,2.2,3.6,45,0.00,,---,0.00,VWS V14.01,2013-07-24 05:14:00,
2013-07-24 00:19:00,79.9,56.7,29.62,SSE,159,2.7,2.7,45,0.00,,---,0.00,VWS V14.01,2013-07-24 05:19:00,
2013-07-24 00:24:00,79.9,56.7,29.62,SSE,147,4.0,4.0,45,0.00,,---,0.00,VWS V14.01,2013-07-24 05:24:00,
2013-07-24 00:29:00,79.9,56.7,29.62,South,187,3.1,3.1,45,0.00,,---,0.00,VWS V14.01,2013-07-24 05:29:00,
2013-07-24 00:34:00,79.7,56.5,29.62,SE,135,4.5,4.5,45,0.00,,---,0.00,VWS V14.01,2013-07-24 05:34:00,
2013-07-24 00:39:00,79.7,56.5,29.62,SE,141,0.0,4.0,45,0.00,,---,0.00,VWS V14.01,2013-07-24 05:39:00,
2013-07-24 00:44:00,79.7,56.5,29.62,SE,145,2.7,3.6,45,0.00,,---,0.00,VWS V14.01,2013-07-24 05:44:00,
2013-07-24 00:49:00,79.7,56.5,29.62,SSE,149,6.3,6.3,45,0.00,,---,0.00,VWS V14.01,2013-07-24 05:49:00,
2013-07-24 00:54:00,79.3,56.8,29.62,SE,137,2.7,2.7,46,0.00,,---,0.00,VWS V14.01,2013-07-24 05:54:00,
2013-07-24 00:59:00,79.3,56.8,29.62,SE,143,0.0,2.7,46,0.00,,---,0.00,VWS V14.01,2013-07-24 05:59:00,
2013-07-24 01:04:00,79.3,56.8,29.62,SSE,147,2.7,2.7,46,0.00,,---,0.00,VWS V14.01,2013-07-24 06:04:00,
2013-07-24 01:09:00,79.3,56.8,29.62,South,175,2.2,2.2,46,0.00,,---,0.00,VWS V14.01,2013-07-24 06:09:00,
2013-07-24 01:15:00,79.3,56.8,29.62,SSE,155,3.1,3.6,46,0.00,,---,0.00,VWS V14.01,2013-07-24 06:15:00,
2013-07-24 01:20:00,79.3,56.8,29.62,SE,136,2.7,2.7,46,0.00,,---,0.00,VWS V14.01,2013-07-24 06:20:00,
2013-07-24 01:25:00,79.2,56.6,29.62,South,177,2.2,3.1,46,0.00,,---,0.00,VWS V14.01,2013-07-24 06:25:00,
2013-07-24 01:30:00,79.2,56.6,29.62,SSE,154,4.0,4.0,46,0.00,,---,0.00,VWS V14.01,2013-07-24 06:30:00,
2013-07-24 01:35:00,79.2,56.6,29.62,SE,142,3.1,3.1,46,0.00,,---,0.00,VWS V14.01,2013-07-24 06:35:00,
2013-07-24 01:40:00,79.0,57.6,29.62,SSE,156,2.7,3.6,48,0.00,,---,0.00,VWS V14.01,2013-07-24 06:40:00,
2013-07-24 01:45:00,79.0,57.6,29.62,SSE,157,3.6,3.6,48,0.00,,---,0.00,VWS V14.01,2013-07-24 06:45:00,
2013-07-24 01:50:00,78.8,57.5,29.62,SSE,151,2.2,3.1,48,0.00,,---,0.00,VWS V14.01,2013-07-24 06:50:00,
2013-07-24 01:55:00,78.8,57.5,29.62,SE,142,4.9,4.9,48,0.00,,---,0.00,VWS V14.01,2013-07-24 06:55:00,
2013-07-24 02:00:00,78.8,57.5,29.62,SE,142,4.9,4.9,48,0.00,,---,0.00,VWS V14.01,2013-07-24 07:00:00,
2013-07-24 02:05:00,78.6,58.4,29.62,SSE,158,2.7,2.7,50,0.00,,---,0.00,VWS V14.01,2013-07-24 07:05:00,
2013-07-24 02:10:00,78.6,58.4,29.62,SE,145,3.6,3.6,50,0.00,,---,0.00,VWS V14.01,2013-07-24 07:10:00,
2013-07-24 02:16:00,78.6,58.4,29.62,SE,139,3.6,3.6,50,0.00,,---,0.00,VWS V14.01,2013-07-24 07:16:00,
2013-07-24 02:21:00,78.6,58.4,29.62,South,169,3.1,3.1,50,0.00,,---,0.00,VWS V14.01,2013-07-24 07:21:00,
2013-07-24 02:26:00,78.6,58.4,29.62,South,169,4.0,4.0,50,0.00,,---,0.00,VWS V14.01,2013-07-24 07:26:00,
2013-07-24 02:31:00,78.6,58.4,29.62,South,170,3.1,3.1,50,0.00,,---,0.00,VWS V14.01,2013-07-24 07:31:00,
2013-07-24 02:36:00,78.6,58.4,29.62,SSE,160,3.1,3.1,50,0.00,,---,0.00,VWS V14.01,2013-07-24 07:36:00,
2013-07-24 02:41:00,78.6,58.4,29.62,SSE,161,3.6,3.6,50,0.00,,---,0.00,VWS V14.01,2013-07-24 07:41:00,
2013-07-24 02:46:00,78.6,58.4,29.62,SSE,155,3.6,3.6,50,0.00,,---,0.00,VWS V14.01,2013-07-24 07:46:00,
2013-07-24 02:51:00,78.6,58.4,29.62,SSE,159,3.6,3.6,50,0.00,,---,0.00,VWS V14.01,2013-07-24 07:51:00,
2013-07-24 02:56:00,78.6,57.3,29.62,SE,137,4.0,4.0,48,0.00,,---,0.00,VWS V14.01,2013-07-24 07:56:00,
2013-07-24 03:01:00,78.6,57.3,29.62,SSE,164,5.4,5.4,48,0.00,,---,0.00,VWS V14.01,2013-07-24 08:01:00,
2013-07-24 03:06:00,78.6,57.3,29.62,South,172,4.5,4.5,48,0.00,,---,0.00,VWS V14.01,2013-07-24 08:06:00,
2013-07-24 03:12:00,78.6,57.3,29.62,SSE,149,3.1,3.6,48,0.00,,---,0.00,VWS V14.01,2013-07-24 08:12:00,
2013-07-24 03:17:00,78.4,57.7,29.65,SE,145,2.7,2.7,49,0.00,,---,0.00,VWS V14.01,2013-07-24 08:17:00,
2013-07-24 03:22:00,78.4,57.7,29.65,SSW,198,2.7,2.7,49,0.00,,---,0.00,VWS V14.01,2013-07-24 08:22:00,
2013-07-24 03:27:00,78.4,57.7,29.65,SSE,150,2.2,2.2,49,0.00,,---,0.00,VWS V14.01,2013-07-24 08:27:00,
2013-07-24 03:32:00,78.4,57.7,29.65,SE,140,2.2,3.6,49,0.00,,---,0.00,VWS V14.01,2013-07-24 08:32:00,
2013-07-24 03:37:00,77.9,56.7,29.65,SSE,147,5.4,5.4,48,0.00,,---,0.00,VWS V14.01,2013-07-24 08:37:00,
2013-07-24 03:42:00,77.9,57.2,29.65,SSE,152,3.6,3.6,49,0.00,,---,0.00,VWS V14.01,2013-07-24 08:42:00,
2013-07-24 03:47:00,77.9,57.2,29.65,SSE,162,4.0,4.0,49,0.00,,---,0.00,VWS V14.01,2013-07-24 08:47:00,
2013-07-24 03:52:00,77.9,57.2,29.65,SSE,152,2.7,2.7,49,0.00,,---,0.00,VWS V14.01,2013-07-24 08:52:00,
2013-07-24 03:58:00,77.9,57.2,29.65,SE,146,0.0,0.0,49,0.00,,---,0.00,VWS V14.01,2013-07-24 08:58:00,
2013-07-24 04:03:00,77.5,58.0,29.65,SSE,152,2.7,2.7,51,0.00,,---,0.00,VWS V14.01,2013-07-24 09:03:00,
2013-07-24 04:08:00,77.5,58.0,29.65,SSE,157,0.0,3.1,51,0.00,,---,0.00,VWS V14.01,2013-07-24 09:08:00,
2013-07-24 04:13:00,77.5,58.0,29.65,South,186,2.7,2.7,51,0.00,,---,0.00,VWS V14.01,2013-07-24 09:13:00,
2013-07-24 04:18:00,77.5,58.0,29.65,SSE,148,3.6,3.6,51,0.00,,---,0.00,VWS V14.01,2013-07-24 09:18:00,
2013-07-24 04:23:00,77.0,59.1,29.65,SSE,157,0.0,0.0,54,0.00,,---,0.00,VWS V14.01,2013-07-24 09:23:00,
2013-07-24 04:28:00,77.0,59.1,29.65,East,99,2.2,5.4,54,0.00,,---,0.00,VWS V14.01,2013-07-24 09:28:00,
2013-07-24 04:33:00,77.2,58.7,29.65,SSE,152,0.0,0.0,53,0.00,,---,0.00,VWS V14.01,2013-07-24 09:33:00,
2013-07-24 04:39:00,77.2,58.7,29.65,SSE,152,2.2,2.2,53,0.00,,---,0.00,VWS V14.01,2013-07-24 09:39:00,
2013-07-24 04:44:00,77.0,59.6,29.65,SSE,152,0.0,0.0,55,0.00,,---,0.00,VWS V14.01,2013-07-24 09:44:00,
2013-07-24 04:49:00,76.8,60.0,29.65,SSE,154,3.1,3.1,56,0.00,,---,0.00,VWS V14.01,2013-07-24 09:49:00,
2013-07-24 04:54:00,76.8,60.5,29.65,SE,144,3.1,3.1,57,0.00,,---,0.00,VWS V14.01,2013-07-24 09:54:00,
2013-07-24 04:59:00,76.8,59.5,29.65,SE,138,2.7,2.7,55,0.00,,---,0.00,VWS V14.01,2013-07-24 09:59:00,
2013-07-24 05:04:00,76.8,59.5,29.65,SE,143,0.0,0.0,55,0.00,,---,0.00,VWS V14.01,2013-07-24 10:04:00,
2013-07-24 05:09:00,76.6,59.8,29.65,SSE,161,2.2,3.1,56,0.00,,---,0.00,VWS V14.01,2013-07-24 10:09:00,
2013-07-24 05:14:00,76.3,60.0,29.65,SSE,150,2.2,2.2,57,0.00,,---,0.00,VWS V14.01,2013-07-24 10:14:00,
2013-07-24 05:19:00,76.3,60.9,29.62,SSE,168,2.2,3.6,59,0.00,,---,0.00,VWS V14.01,2013-07-24 10:19:00,
2013-07-24 05:24:00,76.3,60.9,29.62,SE,133,3.1,3.1,59,0.00,,---,0.00,VWS V14.01,2013-07-24 10:24:00,
2013-07-24 05:29:00,75.9,61.5,29.62,SSE,148,0.0,2.2,61,0.00,,---,0.00,VWS V14.01,2013-07-24 10:29:00,
2013-07-24 05:34:00,75.9,62.4,29.62,SSE,148,2.2,2.2,63,0.00,,---,0.00,VWS V14.01,2013-07-24 10:34:00,
2013-07-24 05:39:00,75.7,62.7,29.62,SSE,155,2.2,2.7,64,0.00,,---,0.00,VWS V14.01,2013-07-24 10:39:00,
2013-07-24 05:45:00,75.7,62.7,29.62,SSE,155,2.2,2.7,64,0.00,,---,0.00,VWS V14.01,2013-07-24 10:45:00,
2013-07-24 05:50:00,75.6,63.0,29.65,SE,146,2.7,2.7,65,0.00,,---,0.00,VWS V14.01,2013-07-24 10:50:00,
2013-07-24 05:55:00,75.6,63.0,29.65,SE,140,2.2,2.2,65,0.00,,---,0.00,VWS V14.01,2013-07-24 10:55:00,
2013-07-24 06:00:00,75.6,63.0,29.65,SSE,149,2.2,2.2,65,0.00,,---,0.00,VWS V14.01,2013-07-24 11:00:00,
2013-07-24 06:05:00,75.4,64.1,29.65,SE,146,2.2,2.2,68,0.00,,---,0.00,VWS V14.01,2013-07-24 11:05:00,
2013-07-24 06:10:00,75.4,64.1,29.65,SSE,147,0.0,0.0,68,0.00,,---,0.00,VWS V14.01,2013-07-24 11:10:00,
2013-07-24 06:15:00,75.4,64.1,29.65,South,175,2.2,2.2,68,0.00,,---,0.00,VWS V14.01,2013-07-24 11:15:00,
2013-07-24 06:21:00,75.4,64.1,29.65,SSE,152,0.0,2.7,68,0.00,,---,0.00,VWS V14.01,2013-07-24 11:21:00,
2013-07-24 06:26:00,75.7,63.6,29.65,SSE,150,2.2,2.2,66,0.00,,---,0.00,VWS V14.01,2013-07-24 11:26:00,
2013-07-24 06:31:00,75.7,63.6,29.65,South,188,0.0,2.2,66,0.00,,---,0.00,VWS V14.01,2013-07-24 11:31:00,
2013-07-24 06:37:00,75.7,63.6,29.65,SE,139,0.0,0.0,66,0.00,,---,0.00,VWS V14.01,2013-07-24 11:37:00,
2013-07-24 06:42:00,75.7,63.6,29.65,SSE,153,2.2,2.7,66,0.00,,---,0.00,VWS V14.01,2013-07-24 11:42:00,
2013-07-24 06:47:00,76.1,62.6,29.65,SSE,153,0.0,0.0,63,0.00,,---,0.00,VWS V14.01,2013-07-24 11:47:00,
2013-07-24 06:52:00,76.1,62.6,29.65,SSE,155,0.0,0.0,63,0.00,,---,0.00,VWS V14.01,2013-07-24 11:52:00,
2013-07-24 06:57:00,76.1,62.6,29.65,SSE,154,0.0,0.0,63,0.00,,---,0.00,VWS V14.01,2013-07-24 11:57:00,
2013-07-24 07:02:00,76.1,62.6,29.65,SSE,164,2.2,3.6,63,0.00,,---,0.00,VWS V14.01,2013-07-24 12:02:00,
2013-07-24 07:08:00,76.1,62.6,29.65,SSE,155,3.6,3.6,63,0.00,,---,0.00,VWS V14.01,2013-07-24 12:08:00,
2013-07-24 07:13:00,76.5,61.1,29.65,SE,143,2.2,2.2,59,0.00,,---,0.00,VWS V14.01,2013-07-24 12:13:00,
2013-07-24 07:18:00,76.5,61.1,29.65,SSW,199,0.0,2.2,59,0.00,,---,0.00,VWS V14.01,2013-07-24 12:18:00,
2013-07-24 07:23:00,76.5,61.1,29.65,SSE,148,2.2,2.2,59,0.00,,---,0.00,VWS V14.01,2013-07-24 12:23:00,
2013-07-24 07:28:00,76.5,61.1,29.65,SE,127,2.2,2.2,59,0.00,,---,0.00,VWS V14.01,2013-07-24 12:28:00,
2013-07-24 07:33:00,76.8,60.0,29.65,SSE,153,2.7,2.7,56,0.00,,---,0.00,VWS V14.01,2013-07-24 12:33:00,
2013-07-24 07:38:00,77.2,59.8,29.65,SSE,148,0.0,0.0,55,0.00,,---,0.00,VWS V14.01,2013-07-24 12:38:00,
2013-07-24 07:43:00,77.4,60.0,29.65,SSE,152,2.7,2.7,55,0.00,,---,0.00,VWS V14.01,2013-07-24 12:43:00,
2013-07-24 07:49:00,77.7,58.7,29.65,SW,226,2.7,2.7,52,0.00,,---,0.00,VWS V14.01,2013-07-24 12:49:00,
2013-07-24 07:54:00,77.7,58.7,29.65,South,181,2.7,2.7,52,0.00,,---,0.00,VWS V14.01,2013-07-24 12:54:00,
2013-07-24 07:59:00,78.1,58.0,29.65,South,182,2.7,2.7,50,0.00,,---,0.00,VWS V14.01,2013-07-24 12:59:00,
2013-07-24 08:04:00,78.1,58.0,29.65,SW,222,0.0,0.0,50,0.00,,---,0.00,VWS V14.01,2013-07-24 13:04:00,
2013-07-24 08:09:00,78.3,57.5,29.65,SSW,192,2.7,2.7,49,0.00,,---,0.00,VWS V14.01,2013-07-24 13:09:00,
2013-07-24 08:14:00,78.4,57.1,29.65,SE,137,0.0,0.0,48,0.00,,---,0.00,VWS V14.01,2013-07-24 13:14:00,
2013-07-24 08:19:00,78.8,56.9,29.65,SSE,167,2.2,4.0,47,0.00,,---,0.00,VWS V14.01,2013-07-24 13:19:00,
2013-07-24 08:24:00,78.8,56.9,29.65,SW,229,2.7,2.7,47,0.00,,---,0.00,VWS V14.01,2013-07-24 13:24:00,
2013-07-24 08:29:00,78.8,56.3,29.65,SW,214,2.7,2.7,46,0.00,,---,0.00,VWS V14.01,2013-07-24 13:29:00,
2013-07-24 08:34:00,78.8,56.3,29.65,South,183,2.7,2.7,46,0.00,,---,0.00,VWS V14.01,2013-07-24 13:34:00,
2013-07-24 08:40:00,78.8,56.3,29.65,South,179,2.7,2.7,46,0.00,,---,0.00,VWS V14.01,2013-07-24 13:40:00,
2013-07-24 08:45:00,79.3,54.9,29.65,SSW,201,2.7,2.7,43,0.00,,---,0.00,VWS V14.01,2013-07-24 13:45:00,
2013-07-24 08:50:00,79.3,54.9,29.65,SSW,213,2.2,2.2,43,0.00,,---,0.00,VWS V14.01,2013-07-24 13:50:00,
2013-07-24 08:55:00,80.1,54.3,29.65,South,189,2.2,2.7,41,0.00,,---,0.00,VWS V14.01,2013-07-24 13:55:00,
2013-07-24 09:00:00,80.1,54.3,29.65,SE,124,2.2,2.7,41,0.00,,---,0.00,VWS V14.01,2013-07-24 14:00:00,
2013-07-24 09:05:00,80.8,54.2,29.65,SSE,155,3.6,3.6,40,0.00,,---,0.00,VWS V14.01,2013-07-24 14:05:00,
2013-07-24 09:10:00,80.6,54.1,29.65,South,172,3.1,3.1,40,0.00,,---,0.00,VWS V14.01,2013-07-24 14:10:00,
2013-07-24 09:16:00,80.6,54.1,29.65,SE,145,3.6,3.6,40,0.00,,---,0.00,VWS V14.01,2013-07-24 14:16:00,
2013-07-24 09:21:00,80.8,53.5,29.65,SSE,168,2.2,2.2,39,0.00,,---,0.00,VWS V14.01,2013-07-24 14:21:00,
2013-07-24 09:26:00,81.1,53.9,29.65,SW,221,2.7,4.0,39,0.00,,---,0.00,VWS V14.01,2013-07-24 14:26:00,
2013-07-24 09:31:00,81.1,52.4,29.65,SE,137,3.1,3.1,37,0.00,,---,0.00,VWS V14.01,2013-07-24 14:31:00,
2013-07-24 09:36:00,81.1,52.4,29.65,SSW,207,2.7,3.1,37,0.00,,---,0.00,VWS V14.01,2013-07-24 14:36:00,
2013-07-24 09:41:00,81.1,52.4,29.65,SSW,208,3.1,3.6,37,0.00,,---,0.00,VWS V14.01,2013-07-24 14:41:00,
2013-07-24 09:47:00,81.3,51.8,29.65,South,189,3.6,3.6,36,0.00,,---,0.00,VWS V14.01,2013-07-24 14:47:00,
2013-07-24 09:52:00,81.0,51.5,29.65,WSW,243,3.1,3.1,36,0.00,,---,0.00,VWS V14.01,2013-07-24 14:52:00,
2013-07-24 09:57:00,81.1,51.7,29.65,SSE,159,3.1,3.1,36,0.00,,---,0.00,VWS V14.01,2013-07-24 14:57:00,
2013-07-24 10:02:00,81.1,51.7,29.65,SSE,158,2.7,2.7,36,0.00,,---,0.00,VWS V14.01,2013-07-24 15:02:00,
2013-07-24 10:07:00,81.1,51.7,29.65,SSE,157,5.4,5.4,36,0.00,,---,0.00,VWS V14.01,2013-07-24 15:07:00,
2013-07-24 10:12:00,81.1,51.7,29.65,South,180,4.0,4.0,36,0.00,,---,0.00,VWS V14.01,2013-07-24 15:12:00,
2013-07-24 10:17:00,83.1,50.2,29.65,SSE,167,2.2,2.7,32,0.00,,---,0.00,VWS V14.01,2013-07-24 15:17:00,
2013-07-24 10:22:00,83.1,50.2,29.65,South,177,3.1,3.1,32,0.00,,---,0.00,VWS V14.01,2013-07-24 15:22:00,
2013-07-24 10:27:00,83.1,50.2,29.65,South,191,3.6,3.6,32,0.00,,---,0.00,VWS V14.01,2013-07-24 15:27:00,
2013-07-24 10:32:00,85.3,49.5,29.68,South,182,3.1,3.1,29,0.00,,---,0.00,VWS V14.01,2013-07-24 15:32:00,
2013-07-24 10:38:00,85.3,49.5,29.68,SW,227,2.7,2.7,29,0.00,,---,0.00,VWS V14.01,2013-07-24 15:38:00,
2013-07-24 10:43:00,86.5,48.6,29.68,SSW,203,3.1,3.1,27,0.00,,---,0.00,VWS V14.01,2013-07-24 15:43:00,
2013-07-24 10:48:00,86.9,49.9,29.68,SSW,195,4.0,4.0,28,0.00,,---,0.00,VWS V14.01,2013-07-24 15:48:00,
2013-07-24 10:53:00,87.1,49.1,29.68,SSW,209,2.2,2.2,27,0.00,,---,0.00,VWS V14.01,2013-07-24 15:53:00,
2013-07-24 10:58:00,87.1,49.1,29.68,SSE,155,2.7,2.7,27,0.00,,---,0.00,VWS V14.01,2013-07-24 15:58:00,
2013-07-24 11:04:00,87.6,45.3,29.68,SW,229,2.7,2.7,23,0.00,,---,0.00,VWS V14.01,2013-07-24 16:04:00,
2013-07-24 11:09:00,87.6,50.5,29.68,SW,214,2.7,2.7,28,0.00,,---,0.00,VWS V14.01,2013-07-24 16:09:00,
2013-07-24 11:14:00,87.6,50.5,29.68,SW,217,0.0,0.0,28,0.00,,---,0.00,VWS V14.01,2013-07-24 16:14:00,
2013-07-24 11:19:00,88.0,43.2,29.68,SE,146,2.2,2.2,21,0.00,,---,0.00,VWS V14.01,2013-07-24 16:19:00,
2013-07-24 11:24:00,88.3,43.5,29.68,SSE,164,3.1,3.1,21,0.00,,---,0.00,VWS V14.01,2013-07-24 16:24:00,
2013-07-24 11:29:00,88.3,42.2,29.68,SSE,156,2.7,2.7,20,0.00,,---,0.00,VWS V14.01,2013-07-24 16:29:00,
2013-07-24 11:35:00,88.7,42.5,29.68,SE,143,3.6,3.6,20,0.00,,---,0.00,VWS V14.01,2013-07-24 16:35:00,
2013-07-24 11:40:00,88.7,42.5,29.68,WSW,240,2.7,2.7,20,0.00,,---,0.00,VWS V14.01,2013-07-24 16:40:00,
2013-07-24 11:45:00,88.7,42.5,29.71,SSW,196,2.7,2.7,20,0.00,,---,0.00,VWS V14.01,2013-07-24 16:45:00,
2013-07-24 11:50:00,90.7,41.4,29.71,SW,225,2.7,2.7,18,0.00,,---,0.00,VWS V14.01,2013-07-24 16:50:00,
2013-07-24 11:55:00,91.6,42.1,29.71,SSE,160,3.6,3.6,18,0.00,,---,0.00,VWS V14.01,2013-07-24 16:55:00,
2013-07-24 12:00:00,91.6,42.1,29.68,SW,225,2.7,2.7,18,0.00,,---,0.00,VWS V14.01,2013-07-24 17:00:00,
2013-07-24 12:05:00,93.7,40.8,29.68,SSE,155,3.1,3.1,16,0.00,,---,0.00,VWS V14.01,2013-07-24 17:05:00,
2013-07-24 12:10:00,97.2,38.2,29.68,West,276,4.0,4.0,13,0.00,,---,0.00,VWS V14.01,2013-07-24 17:10:00,
2013-07-24 12:15:00,96.3,33.3,29.68,West,277,0.0,2.2,11,0.00,,---,0.00,VWS V14.01,2013-07-24 17:15:00,
2013-07-24 12:20:00,100.0,33.8,29.68,SSE,150,2.2,2.2,10,0.00,,---,0.00,VWS V14.01,2013-07-24 17:20:00,
2013-07-24 12:25:00,100.0,33.8,29.68,SSE,163,3.1,3.1,10,0.00,,---,0.00,VWS V14.01,2013-07-24 17:25:00,
2013-07-24 12:31:00,100.9,25.7,29.68,SSW,207,3.6,3.6,7,0.00,,---,0.00,VWS V14.01,2013-07-24 17:31:00,
2013-07-24 12:36:00,101.8,26.3,29.68,SW,230,0.0,0.0,7,0.00,,---,0.00,VWS V14.01,2013-07-24 17:36:00,
2013-07-24 12:41:00,99.5,27.9,29.68,SSE,151,2.2,2.2,8,0.00,,---,0.00,VWS V14.01,2013-07-24 17:41:00,
2013-07-24 12:46:00,99.5,27.9,29.68,WSW,249,2.7,2.7,8,0.00,,---,0.00,VWS V14.01,2013-07-24 17:46:00,
2013-07-24 12:51:00,102.9,27.1,29.68,SSE,166,2.2,2.2,7,0.00,,---,0.00,VWS V14.01,2013-07-24 17:51:00,
2013-07-24 12:56:00,101.1,25.8,29.68,SE,144,2.2,2.7,7,0.00,,---,0.00,VWS V14.01,2013-07-24 17:56:00,
2013-07-24 13:01:00,101.1,25.8,29.68,SSE,148,0.0,0.0,7,0.00,,---,0.00,VWS V14.01,2013-07-24 18:01:00,
2013-07-24 13:06:00,101.8,26.3,29.68,SW,218,2.7,2.7,7,0.00,,---,0.00,VWS V14.01,2013-07-24 18:06:00,
2013-07-24 13:12:00,101.8,26.3,29.68,SW,230,2.7,2.7,7,0.00,,---,0.00,VWS V14.01,2013-07-24 18:12:00,
2013-07-24 13:17:00,99.7,28.0,29.65,SW,220,2.2,2.2,8,0.00,,---,0.00,VWS V14.01,2013-07-24 18:17:00,
2013-07-24 13:22:00,98.8,27.3,29.65,South,175,3.6,3.6,8,0.00,,---,0.00,VWS V14.01,2013-07-24 18:22:00,
2013-07-24 13:27:00,101.8,26.3,29.65,SSE,164,3.1,3.1,7,0.00,,---,0.00,VWS V14.01,2013-07-24 18:27:00,
2013-07-24 13:32:00,102.4,26.7,29.65,SSW,208,4.0,4.0,7,0.00,,---,0.00,VWS V14.01,2013-07-24 18:32:00,
2013-07-24 13:37:00,101.3,26.0,29.65,SSW,212,2.2,2.2,7,0.00,,---,0.00,VWS V14.01,2013-07-24 18:37:00,
2013-07-24 13:42:00,101.3,26.0,29.65,SSW,199,3.6,3.6,7,0.00,,---,0.00,VWS V14.01,2013-07-24 18:42:00,
2013-07-24 13:47:00,101.7,26.2,29.65,SW,228,2.7,2.7,7,0.00,,---,0.00,VWS V14.01,2013-07-24 18:47:00,
2013-07-24 13:52:00,102.2,26.6,29.65,SSW,206,2.7,5.8,7,0.00,,---,0.00,VWS V14.01,2013-07-24 18:52:00,
2013-07-24 13:58:00,102.2,26.6,29.65,WSW,241,4.0,4.0,7,0.00,,---,0.00,VWS V14.01,2013-07-24 18:58:00,
2013-07-24 14:03:00,98.4,27.1,29.65,SW,220,0.0,0.0,8,0.00,,---,0.00,VWS V14.01,2013-07-24 19:03:00,
2013-07-24 14:08:00,98.8,27.3,29.65,SSE,150,4.0,4.0,8,0.00,,---,0.00,VWS V14.01,2013-07-24 19:08:00,
2013-07-24 14:13:00,99.0,27.5,29.65,SSE,149,0.0,0.0,8,0.00,,---,0.00,VWS V14.01,2013-07-24 19:13:00,
2013-07-24 14:18:00,99.0,27.5,29.65,SSE,148,4.0,4.0,8,0.00,,---,0.00,VWS V14.01,2013-07-24 19:18:00,
2013-07-24 14:23:00,99.0,27.5,29.65,SE,145,2.7,3.6,8,0.00,,---,0.00,VWS V14.01,2013-07-24 19:23:00,
2013-07-24 14:28:00,99.5,27.9,29.65,SSE,152,0.0,0.0,8,0.00,,---,0.00,VWS V14.01,2013-07-24 19:28:00,
2013-07-24 14:33:00,99.5,27.9,29.65,WNW,291,2.2,2.2,8,0.00,,---,0.00,VWS V14.01,2013-07-24 19:33:00,
2013-07-24 14:38:00,100.6,25.4,29.65,North,9,0.0,0.0,7,0.00,,---,0.00,VWS V14.01,2013-07-24 19:38:00,
2013-07-24 14:44:00,100.6,25.4,29.65,North,10,0.0,0.0,7,0.00,,---,0.00,VWS V14.01,2013-07-24 19:44:00,
2013-07-24 14:49:00,100.8,25.6,29.62,North,10,0.0,0.0,7,0.00,,---,0.00,VWS V14.01,2013-07-24 19:49:00,
2013-07-24 14:54:00,99.5,27.9,29.62,WSW,241,3.6,3.6,8,0.00,,---,0.00,VWS V14.01,2013-07-24 19:54:00,
2013-07-24 14:59:00,98.2,27.0,29.62,WNW,283,2.7,2.7,8,0.00,,---,0.00,VWS V14.01,2013-07-24 19:59:00,
2013-07-24 15:04:00,98.2,27.0,29.62,SW,220,0.0,0.0,8,0.00,,---,0.00,VWS V14.01,2013-07-24 20:04:00,
2013-07-24 15:09:00,98.2,27.0,29.62,WNW,287,0.0,2.2,8,0.00,,---,0.00,VWS V14.01,2013-07-24 20:09:00,
2013-07-24 15:14:00,98.2,27.0,29.62,NE,50,2.7,2.7,8,0.00,,---,0.00,VWS V14.01,2013-07-24 20:14:00,
2013-07-24 15:20:00,97.3,26.3,29.62,SE,145,3.1,4.0,8,0.00,,---,0.00,VWS V14.01,2013-07-24 20:20:00,
2013-07-24 15:25:00,97.9,26.7,29.62,SSE,147,0.0,0.0,8,0.00,,---,0.00,VWS V14.01,2013-07-24 20:25:00,
2013-07-24 15:30:00,97.5,26.4,29.62,SSE,159,2.2,2.7,8,0.00,,---,0.00,VWS V14.01,2013-07-24 20:30:00,
2013-07-24 15:35:00,98.4,27.1,29.62,SW,225,2.2,2.2,8,0.00,,---,0.00,VWS V14.01,2013-07-24 20:35:00,
2013-07-24 15:40:00,100.4,25.3,29.62,SW,225,0.0,0.0,7,0.00,,---,0.00,VWS V14.01,2013-07-24 20:40:00,
2013-07-24 15:45:00,100.6,25.4,29.62,South,171,0.0,0.0,7,0.00,,---,0.00,VWS V14.01,2013-07-24 20:45:00,
2013-07-24 15:50:00,100.6,25.4,29.59,South,171,0.0,0.0,7,0.00,,---,0.00,VWS V14.01,2013-07-24 20:50:00,
2013-07-24 15:55:00,101.3,26.0,29.59,SSE,155,3.1,3.1,7,0.00,,---,0.00,VWS V14.01,2013-07-24 20:55:00,
2013-07-24 16:01:00,99.5,27.9,29.59,SSE,156,0.0,0.0,8,0.00,,---,0.00,VWS V14.01,2013-07-24 21:01:00,
2013-07-24 16:06:00,99.0,27.5,29.59,SE,142,0.0,2.7,8,0.00,,---,0.00,VWS V14.01,2013-07-24 21:06:00,
2013-07-24 16:11:00,98.4,27.1,29.59,SSE,149,3.1,3.1,8,0.00,,---,0.00,VWS V14.01,2013-07-24 21:11:00,
2013-07-24 16:16:00,98.1,26.8,29.59,SSE,148,2.7,2.7,8,0.00,,---,0.00,VWS V14.01,2013-07-24 21:16:00,
2013-07-24 16:21:00,98.2,27.0,29.59,South,173,2.2,2.2,8,0.00,,---,0.00,VWS V14.01,2013-07-24 21:21:00,
2013-07-24 16:26:00,99.5,27.9,29.59,SSE,168,0.0,0.0,8,0.00,,---,0.00,VWS V14.01,2013-07-24 21:26:00,
2013-07-24 16:31:00,98.6,27.2,29.59,SSE,158,2.7,3.1,8,0.00,,---,0.00,VWS V14.01,2013-07-24 21:31:00,
2013-07-24 16:37:00,96.4,28.5,29.59,SSE,147,3.1,5.8,9,0.00,,---,0.00,VWS V14.01,2013-07-24 21:37:00,
2013-07-24 16:42:00,97.3,26.3,29.56,SE,145,4.9,4.9,8,0.00,,---,0.00,VWS V14.01,2013-07-24 21:42:00,
2013-07-24 16:47:00,96.8,25.9,29.56,East,93,3.1,3.1,8,0.00,,---,0.00,VWS V14.01,2013-07-24 21:47:00,
2013-07-24 16:52:00,97.5,26.4,29.56,South,191,0.0,0.0,8,0.00,,---,0.00,VWS V14.01,2013-07-24 21:52:00,
2013-07-24 16:57:00,97.3,26.3,29.56,SSE,151,3.1,3.1,8,0.00,,---,0.00,VWS V14.01,2013-07-24 21:57:00,
2013-07-24 17:02:00,96.8,25.9,29.56,SE,140,2.2,2.2,8,0.00,,---,0.00,VWS V14.01,2013-07-24 22:02:00,
2013-07-24 17:07:00,96.8,25.9,29.56,SSE,149,2.7,2.7,8,0.00,,---,0.00,VWS V14.01,2013-07-24 22:07:00,
2013-07-24 17:12:00,96.4,28.5,29.56,SSE,158,2.7,2.7,9,0.00,,---,0.00,VWS V14.01,2013-07-24 22:12:00,
2013-07-24 17:18:00,97.0,26.0,29.56,SE,130,2.7,2.7,8,0.00,,---,0.00,VWS V14.01,2013-07-24 22:18:00,
2013-07-24 17:23:00,96.8,25.9,29.56,SSE,150,2.7,2.7,8,0.00,,---,0.00,VWS V14.01,2013-07-24 22:23:00,
2013-07-24 17:28:00,96.1,28.2,29.56,SE,132,4.0,4.0,9,0.00,,---,0.00,VWS V14.01,2013-07-24 22:28:00,
2013-07-24 17:33:00,96.1,28.2,29.56,SSE,155,3.1,3.1,9,0.00,,---,0.00,VWS V14.01,2013-07-24 22:33:00,
2013-07-24 17:38:00,96.3,28.3,29.56,ESE,120,2.7,2.7,9,0.00,,---,0.00,VWS V14.01,2013-07-24 22:38:00,
2013-07-24 17:43:00,95.9,28.1,29.56,ESE,123,2.7,2.7,9,0.00,,---,0.00,VWS V14.01,2013-07-24 22:43:00,
2013-07-24 17:48:00,95.4,27.7,29.56,SE,144,3.1,3.1,9,0.00,,---,0.00,VWS V14.01,2013-07-24 22:48:00,
2013-07-24 17:54:00,94.8,27.3,29.56,SSE,152,2.2,2.2,9,0.00,,---,0.00,VWS V14.01,2013-07-24 22:54:00,
2013-07-24 17:59:00,94.6,27.1,29.56,East,98,3.1,3.1,9,0.00,,---,0.00,VWS V14.01,2013-07-24 22:59:00,
2013-07-24 18:04:00,94.5,27.0,29.56,SE,144,0.0,0.0,9,0.00,,---,0.00,VWS V14.01,2013-07-24 23:04:00,
2013-07-24 18:09:00,94.1,26.7,29.56,SSE,154,3.1,3.1,9,0.00,,---,0.00,VWS V14.01,2013-07-24 23:09:00,
2013-07-24 18:14:00,94.3,26.9,29.56,East,94,2.2,2.2,9,0.00,,---,0.00,VWS V14.01,2013-07-24 23:14:00,
2013-07-24 18:19:00,94.1,26.7,29.56,SE,133,2.7,2.7,9,0.00,,---,0.00,VWS V14.01,2013-07-24 23:19:00,
2013-07-24 18:24:00,94.1,26.7,29.56,East,101,2.7,2.7,9,0.00,,---,0.00,VWS V14.01,2013-07-24 23:24:00,
2013-07-24 18:29:00,94.1,26.7,29.56,ESE,111,3.6,3.6,9,0.00,,---,0.00,VWS V14.01,2013-07-24 23:29:00,
2013-07-24 18:34:00,93.4,26.2,29.56,ESE,123,3.6,3.6,9,0.00,,---,0.00,VWS V14.01,2013-07-24 23:34:00,
2013-07-24 18:39:00,93.2,26.0,29.56,SE,131,2.7,4.0,9,0.00,,---,0.00,VWS V14.01,2013-07-24 23:39:00,
2013-07-24 18:44:00,93.4,26.2,29.56,SE,140,2.7,2.7,9,0.00,,---,0.00,VWS V14.01,2013-07-24 23:44:00,
2013-07-24 18:50:00,93.2,26.0,29.56,East,95,2.7,2.7,9,0.00,,---,0.00,VWS V14.01,2013-07-24 23:50:00,
2013-07-24 18:55:00,93.0,25.9,29.56,SE,145,2.2,2.2,9,0.00,,---,0.00,VWS V14.01,2013-07-24 23:55:00,
2013-07-24 19:00:00,93.0,25.9,29.56,SSE,151,0.0,0.0,9,0.00,,---,0.00,VWS V14.01,2013-07-25 00:00:00,
2013-07-24 19:05:00,92.7,25.6,29.56,SSE,153,2.2,2.7,9,0.00,,---,0.00,VWS V14.01,2013-07-25 00:05:00,
2013-07-24 19:10:00,92.5,25.5,29.56,SE,146,2.7,2.7,9,0.00,,---,0.00,VWS V14.01,2013-07-25 00:10:00,
2013-07-24 19:15:00,92.3,25.4,29.56,SSE,155,2.2,2.7,9,0.00,,---,0.00,VWS V14.01,2013-07-25 00:15:00,
2013-07-24 19:20:00,92.1,25.2,29.56,SSE,159,3.1,3.1,9,0.00,,---,0.00,VWS V14.01,2013-07-25 00:20:00,
2013-07-24 19:25:00,91.8,25.0,29.56,ESE,116,0.0,0.0,9,0.00,,---,0.00,VWS V14.01,2013-07-25 00:25:00,
2013-07-24 19:31:00,91.2,27.1,29.56,SE,141,0.0,2.2,10,0.00,,---,0.00,VWS V14.01,2013-07-25 00:31:00,
2013-07-24 19:36:00,90.9,26.8,29.56,SE,125,0.0,2.7,10,0.00,,---,0.00,VWS V14.01,2013-07-25 00:36:00,
2013-07-24 19:41:00,90.7,26.7,29.56,SSE,156,0.0,0.0,10,0.00,,---,0.00,VWS V14.01,2013-07-25 00:41:00,
2013-07-24 19:46:00,90.3,26.4,29.56,SE,144,0.0,2.7,10,0.00,,---,0.00,VWS V14.01,2013-07-25 00:46:00,
2013-07-24 19:52:00,90.3,26.4,29.56,SSE,147,0.0,0.0,10,0.00,,---,0.00,VWS V14.01,2013-07-25 00:52:00,
2013-07-24 19:57:00,90.0,26.2,29.56,SE,144,0.0,0.0,10,0.00,,---,0.00,VWS V14.01,2013-07-25 00:57:00,
2013-07-24 20:02:00,89.4,25.8,29.56,SE,143,0.0,2.7,10,0.00,,---,0.00,VWS V14.01,2013-07-25 01:02:00,
2013-07-24 20:07:00,89.2,25.6,29.56,SE,133,3.1,3.1,10,0.00,,---,0.00,VWS V14.01,2013-07-25 01:07:00,
2013-07-24 20:12:00,89.2,25.6,29.56,SSE,148,0.0,0.0,10,0.00,,---,0.00,VWS V14.01,2013-07-25 01:12:00,
2013-07-24 20:17:00,88.9,31.7,29.56,SSE,148,0.0,0.0,13,0.00,,---,0.00,VWS V14.01,2013-07-25 01:17:00,
2013-07-24 20:22:00,88.5,31.5,29.56,SSE,148,0.0,0.0,13,0.00,,---,0.00,VWS V14.01,2013-07-25 01:22:00,
2013-07-24 20:27:00,88.0,31.0,29.56,SSE,148,0.0,0.0,13,0.00,,---,0.00,VWS V14.01,2013-07-25 01:27:00,
2013-07-24 20:33:00,87.3,30.5,29.56,SSE,148,0.0,0.0,13,0.00,,---,0.00,VWS V14.01,2013-07-25 01:33:00,
2013-07-24 20:38:00,86.7,35.2,29.56,SSE,148,0.0,0.0,16,0.00,,---,0.00,VWS V14.01,2013-07-25 01:38:00,
2013-07-24 20:43:00,86.2,37.8,29.59,SSE,148,0.0,0.0,18,0.00,,---,0.00,VWS V14.01,2013-07-25 01:43:00,
2013-07-24 20:48:00,86.0,37.6,29.59,ESE,123,0.0,0.0,18,0.00,,---,0.00,VWS V14.01,2013-07-25 01:48:00,
2013-07-24 20:53:00,85.5,38.5,29.59,ESE,123,0.0,0.0,19,0.00,,---,0.00,VWS V14.01,2013-07-25 01:53:00,
2013-07-24 20:58:00,85.3,38.4,29.59,ESE,123,0.0,0.0,19,0.00,,---,0.00,VWS V14.01,2013-07-25 01:58:00,
2013-07-24 21:03:00,85.3,38.4,29.59,ESE,123,0.0,0.0,19,0.00,,---,0.00,VWS V14.01,2013-07-25 02:03:00,
2013-07-24 21:08:00,85.3,38.4,29.59,ESE,123,2.2,2.2,19,0.00,,---,0.00,VWS V14.01,2013-07-25 02:08:00,
2013-07-24 21:13:00,85.3,38.4,29.59,ESE,123,0.0,0.0,19,0.00,,---,0.00,VWS V14.01,2013-07-25 02:13:00,
2013-07-24 21:18:00,85.3,38.4,29.59,SE,128,0.0,0.0,19,0.00,,---,0.00,VWS V14.01,2013-07-25 02:18:00,
2013-07-24 21:23:00,85.3,38.4,29.59,SE,125,0.0,3.1,19,0.00,,---,0.00,VWS V14.01,2013-07-25 02:23:00,
2013-07-24 21:28:00,85.3,38.4,29.59,SE,137,2.2,2.2,19,0.00,,---,0.00,VWS V14.01,2013-07-25 02:28:00,
2013-07-24 21:34:00,85.3,39.7,29.59,SSE,153,0.0,0.0,20,0.00,,---,0.00,VWS V14.01,2013-07-25 02:34:00,
2013-07-24 21:39:00,85.1,39.6,29.59,SE,141,2.7,2.7,20,0.00,,---,0.00,VWS V14.01,2013-07-25 02:39:00,
2013-07-24 21:44:00,84.7,40.5,29.59,SE,136,3.1,3.1,21,0.00,,---,0.00,VWS V14.01,2013-07-25 02:44:00,
2013-07-24 21:49:00,84.2,40.1,29.62,SSE,154,2.7,3.1,21,0.00,,---,0.00,VWS V14.01,2013-07-25 02:49:00,
2013-07-24 21:54:00,83.8,41.0,29.62,SSE,147,2.2,2.2,22,0.00,,---,0.00,VWS V14.01,2013-07-25 02:54:00,
2013-07-24 21:59:00,83.7,42.0,29.62,SSE,149,2.7,2.7,23,0.00,,---,0.00,VWS V14.01,2013-07-25 02:59:00,
2013-07-24 22:04:00,83.3,43.8,29.62,SE,146,0.0,0.0,25,0.00,,---,0.00,VWS V14.01,2013-07-25 03:04:00,
2013-07-24 22:09:00,83.1,44.7,29.62,SSE,151,2.7,2.7,26,0.00,,---,0.00,VWS V14.01,2013-07-25 03:09:00,
2013-07-24 22:15:00,82.8,47.3,29.62,SSE,151,2.2,2.2,29,0.00,,---,0.00,VWS V14.01,2013-07-25 03:15:00,
2013-07-24 22:20:00,82.4,47.0,29.62,SSE,147,2.2,2.2,29,0.00,,---,0.00,VWS V14.01,2013-07-25 03:20:00,
2013-07-24 22:25:00,82.2,47.7,29.62,SSE,147,2.2,2.2,30,0.00,,---,0.00,VWS V14.01,2013-07-25 03:25:00,
2013-07-24 22:31:00,82.2,47.7,29.62,SSE,152,2.7,2.7,30,0.00,,---,0.00,VWS V14.01,2013-07-25 03:31:00,
2013-07-24 22:36:00,82.2,48.6,29.62,SSE,150,0.0,0.0,31,0.00,,---,0.00,VWS V14.01,2013-07-25 03:36:00,
2013-07-24 22:41:00,82.0,48.5,29.62,SE,140,2.7,2.7,31,0.00,,---,0.00,VWS V14.01,2013-07-25 03:41:00,
2013-07-24 22:47:00,81.9,49.1,29.62,SSE,154,2.2,2.2,32,0.00,,---,0.00,VWS V14.01,2013-07-25 03:47:00,
2013-07-24 22:52:00,81.5,48.8,29.62,SSE,147,3.1,3.1,32,0.00,,---,0.00,VWS V14.01,2013-07-25 03:52:00,
2013-07-24 22:57:00,81.3,49.5,29.62,SSE,151,0.0,0.0,33,0.00,,---,0.00,VWS V14.01,2013-07-25 03:57:00,
2013-07-24 23:01:00,81.1,50.1,29.62,SE,146,2.7,2.7,34,0.00,,---,0.00,VWS V14.01,2013-07-25 04:01:00,
2013-07-24 23:02:00,81.1,50.1,29.62,SSE,147,2.7,2.7,34,0.00,,---,0.00,VWS V14.01,2013-07-25 04:02:00,
2013-07-24 23:03:00,81.1,50.1,29.62,SSE,147,2.7,2.7,34,0.00,,---,0.00,VWS V14.01,2013-07-25 04:03:00,
2013-07-24 23:08:00,81.0,50.0,29.62,SE,139,3.1,3.1,34,0.00,,---,0.00,VWS V14.01,2013-07-25 04:08:00,
2013-07-24 23:13:00,80.8,50.6,29.62,SE,142,0.0,0.0,35,0.00,,---,0.00,VWS V14.01,2013-07-25 04:13:00,
2013-07-24 23:18:00,80.8,50.6,29.62,SSE,148,0.0,0.0,35,0.00,,---,0.00,VWS V14.01,2013-07-25 04:18:00,
2013-07-24 23:23:00,80.6,50.5,29.62,SSE,148,2.2,2.2,35,0.00,,---,0.00,VWS V14.01,2013-07-25 04:23:00,
2013-07-24 23:28:00,80.6,51.2,29.62,SSE,150,2.7,2.7,36,0.00,,---,0.00,VWS V14.01,2013-07-25 04:28:00,
2013-07-24 23:33:00,80.6,51.2,29.62,SSE,147,0.0,0.0,36,0.00,,---,0.00,VWS V14.01,2013-07-25 04:33:00,
2013-07-24 23:38:00,80.6,51.2,29.62,SSE,151,2.7,2.7,36,0.00,,---,0.00,VWS V14.01,2013-07-25 04:38:00,
2013-07-24 23:43:00,80.4,51.8,29.62,SE,145,0.0,0.0,37,0.00,,---,0.00,VWS V14.01,2013-07-25 04:43:00,
2013-07-24 23:48:00,80.2,51.6,29.65,SE,145,0.0,2.2,37,0.00,,---,0.00,VWS V14.01,2013-07-25 04:48:00,
2013-07-24 23:53:00,80.2,52.3,29.65,SE,145,0.0,2.2,38,0.00,,---,0.00,VWS V14.01,2013-07-25 04:53:00,
2013-07-24 23:54:00,80.1,52.2,29.65,SE,145,0.0,0.0,38,0.00,,---,0.00,VWS V14.01,2013-07-25 04:54:00,
2013-07-24 23:59:00,80.1,52.2,29.65,SSE,153,2.2,2.2,38,0.00,,---,0.00,VWS V14.01,2013-07-25 04:59:00,